Location: *
(49.0044°N, 9.5056°E)
Time: 07:11:19
(UTC+00:00)

SL-08 RB Rocket - Pass Details

Date: 22 September 2019
Orbit: 646 x 685 km, 97.9° (Epoch: 22 October)

Event Time Altitude Azimuth Distance (km) Brightness Sun altitude
Exits shadow 19:26:58 42° 156° (SSE) 978 4.2 -20.8°
Maximum altitude 19:28:32 81° 75° (ENE) 700 3.6 -21.0°
Drops below altitude 10° 19:33:14 10° 348° (NNW) 2,140 6.8 -21.7°
Sets 19:35:29 0° 348° (NNW) 3,057 7.7 -22.1°
